Location: Bonneuil
(46.1010°N, 2.9693°E)
Time: 01:42:07
(UTC+00:00)

ISS - Pass Details

Date: 13 March 2021
Orbit: 418 x 422 km, 51.6° (Epoch: 10 April)

Event Time Altitude Azimuth Distance (km) Brightness Sun altitude
Exits shadow 04:03:57 17° 154° (SSE) 1,130 -1.5 -21.4°
Drops below altitude 10° 04:04:56 10° 146° (SE) 1,491 -0.8 -21.3°
Sets 04:07:05 0° 139° (SE) 2,351 0.3 -20.9°
